FW8766 Weather Reports


Display with metric or nautical units.
time (UTC)temp
F
wind
direction
speed
MPH
gust
MPH
rain 1hr
in
rain 24hr
in
rain mn
in
humidity
%
barometer
mb
20260506133521 41 113 0.0 1.0 0.00 0.00 0.00 95 1010.8
20260506132521 41 23 0.0 2.0 0.00 0.00 0.00 94 1010.8
20260506131516 41 0.0 0.0 0.00 0.00 0.00 94 1010.8
20260506130541 41 0.0 0.0 0.00 0.00 0.00 94 1010.7
20260506125516 41 111 0.0 2.0 0.00 0.00 0.00 94 1010.7
20260506124516 41 0.0 1.0 0.00 0.00 0.00 94 1010.6
20260506123516 41 0.0 0.0 0.00 0.00 0.00 92 1010.5
20260506122524 41 0.0 0.0 0.00 0.00 0.00 92 1010.2
20260506121525 42 0.0 0.0 0.00 0.00 0.00 91 1010.2
20260506120520 42 158 0.0 1.0 0.00 0.00 0.00 90 1010.3
20260506115524 42 113 1.0 2.0 0.00 0.00 0.00 90 1010.4
20260506114515 42 146 0.0 2.0 0.00 0.00 0.00 89 1010.3
20260506113515 43 0.0 0.0 0.00 0.00 0.00 88 1010.2
20260506112518 43 0.0 0.0 0.00 0.00 0.00 87 1010.0
20260506111607 44 0.0 0.0 0.00 0.00 0.00 87 1009.8
20260506110516 44 0.0 0.0 0.00 0.00 0.00 86 1009.8
20260506105516 44 0.0 0.0 0.00 0.00 0.00 84 1009.7
20260506104541 44 0.0 0.0 0.00 0.00 0.00 84 1009.7
20260506103533 45 0.0 0.0 0.00 0.00 0.00 83 1009.6
20260506102523 45 45 0.0 1.0 0.00 0.00 0.00 82 1009.5
20260506101515 46 0.0 1.0 0.00 0.00 0.00 80 1009.6
20260506100602 46 0.0 0.0 0.00 0.00 0.00 79 1009.4
20260506095529 46 0.0 0.0 0.00 0.00 0.00 76 1009.3
20260506094521 47 345 1.0 2.0 0.00 0.00 0.00 75 1009.2
20260506093521 47 0.0 0.0 0.00 0.00 0.00 74 1009.1
20260506092531 48 0.0 0.0 0.00 0.00 0.00 72 1009.1
20260506091532 49 0.0 0.0 0.00 0.00 0.00 70 1009.1
20260506090550 49 135 0.0 2.0 0.00 0.00 0.00 69 1008.9
20260506085525 49 0.0 0.0 0.00 0.00 0.00 68 1008.7
20260506084520 50 11 0.0 2.0 0.00 0.00 0.00 68 1008.7
20260506083530 50 25 1.0 2.0 0.00 0.00 0.00 68 1008.7
20260506082525 51 0.0 0.0 0.00 0.00 0.00 67 1008.6
20260506081520 51 10 2.0 3.0 0.00 0.00 0.00 67 1008.4
20260506080533 51 2 1.0 3.0 0.00 0.00 0.00 66 1008.4
20260506072543 52 14 1.0 2.0 0.00 0.00 0.00 64 1008.2
20260506071518 53 293 0.0 2.0 0.00 0.00 0.00 63 1007.8
20260506070528 53 0.0 0.0 0.00 0.00 0.00 60 1007.7
20260506061533 56 0.0 1.0 0.00 0.00 0.00 55 1007.5
20260506060533 57 38 1.0 2.0 0.00 0.00 0.00 55 1007.4
20260506050521 60 36 2.0 2.0 0.00 0.00 0.00 48 1006.9
20260506044517 62 45 0.0 2.0 0.00 0.00 0.00 47 1006.9
20260506043520 62 68 0.0 1.0 0.00 0.00 0.00 46 1006.7
20260506042518 63 30 1.0 2.0 0.00 0.00 0.00 46 1006.6
20260506041531 64 40 1.0 2.0 0.00 0.00 0.00 44 1006.4
20260506040526 66 34 0.0 2.0 0.00 0.00 0.00 43 1006.4
20260506035529 67 0.0 0.0 0.00 0.00 0.00 41 1006.4
20260506034529 69 0.0 0.0 0.00 0.00 0.00 39 1006.4
20260506033551 71 0.0 0.0 0.00 0.00 0.00 37 1006.3
20260506032530 73 0.0 0.0 0.00 0.00 0.00 35 1006.4
20260506031522 76 0.0 0.0 0.00 0.00 0.00 32 1006.3
20260506030519 77 180 0.0 1.0 0.00 0.00 0.00 30 1006.4
20260506025522 80 163 1.0 2.0 0.00 0.00 0.00 28 1006.4
20260506024523 82 134 2.0 3.0 0.00 0.00 0.00 26 1006.5
20260506023521 82 151 3.0 4.0 0.00 0.00 0.00 25 1006.4
20260506022518 83 156 3.0 5.0 0.00 0.00 0.00 25 1006.4
20260506021532 84 147 3.0 5.0 0.00 0.00 0.00 25 1006.6
20260506020532 82 167 3.0 5.0 0.00 0.00 0.00 27 1006.6
20260506015532 81 157 3.0 5.0 0.00 0.00 0.00 26 1006.6
20260506014532 82 166 3.0 5.0 0.00 0.00 0.00 26 1006.6
20260506013550 85 122 1.0 4.0 0.00 0.00 0.00 26 1006.6
20260506012541 84 108 1.0 2.0 0.00 0.00 0.00 26 1006.9
20260506011535 84 321 2.0 4.0 0.00 0.00 0.00 26 1007.0
20260506010515 84 303 2.0 4.0 0.00 0.00 0.00 25 1007.0
20260506005531 84 217 2.0 4.0 0.00 0.00 0.00 25 1007.1
20260506004533 85 49 2.0 4.0 0.00 0.00 0.00 25 1007.2
20260506003532 85 267 4.0 5.0 0.00 0.00 0.00 25 1007.3
20260506002532 85 232 2.0 4.0 0.00 0.00 0.00 25 1007.4
20260506001529 85 45 2.0 3.0 0.00 0.00 0.00 26 1007.6
20260506000532 85 272 3.0 3.0 0.00 0.00 0.00 25 1007.7
20260505235555 85 216 4.0 6.0 0.00 0.00 0.00 25 1007.8
20260505234527 85 233 3.0 6.0 0.00 0.00 0.00 25 1007.8
20260505233518 85 232 3.0 5.0 0.00 0.00 0.00 25 1008.0
20260505232530 84 150 2.0 4.0 0.00 0.00 0.00 25 1008.2
20260505231531 85 31 3.0 5.0 0.00 0.00 0.00 25 1008.3
20260505230554 84 252 4.0 7.0 0.00 0.00 0.00 25 1008.4
20260505225531 83 146 1.0 3.0 0.00 0.00 0.00 25 1008.5
20260505224534 84 264 4.0 5.0 0.00 0.00 0.00 25 1008.6
20260505223534 84 264 4.0 6.0 0.00 0.00 0.00 25 1008.8
20260505222534 84 269 4.0 7.0 0.00 0.00 0.00 25 1008.9
20260505221534 84 200 3.0 6.0 0.00 0.00 0.00 24 1009.2
20260505220526 84 261 3.0 5.0 0.00 0.00 0.00 25 1009.3
20260505215524 83 273 3.0 5.0 0.00 0.00 0.00 24 1009.4
20260505214539 83 240 5.0 7.0 0.00 0.00 0.00 25 1009.7
20260505213517 83 240 3.0 5.0 0.00 0.00 0.00 25 1009.9
20260505212537 82 256 3.0 4.0 0.00 0.00 0.00 27 1010.1
20260505211517 82 91 3.0 7.0 0.00 0.00 0.00 27 1010.3
20260505210531 81 249 4.0 8.0 0.00 0.00 0.00 28 1010.4
20260505205534 80 242 3.0 5.0 0.00 0.00 0.00 29 1010.5
20260505204536 81 171 3.0 5.0 0.00 0.00 0.00 30 1010.6
20260505203531 80 211 3.0 5.0 0.00 0.00 0.00 30 1010.9
20260505202531 81 238 4.0 6.0 0.00 0.00 0.00 30 1011.1
20260505201552 79 196 2.0 4.0 0.00 0.00 0.00 30 1011.1
20260505200521 79 216 3.0 5.0 0.00 0.00 0.00 29 1011.2
20260505195530 79 141 3.0 5.0 0.00 0.00 0.00 28 1011.3
20260505194550 78 169 3.0 5.0 0.00 0.00 0.00 30 1011.4
20260505193525 77 182 3.0 5.0 0.00 0.00 0.00 32 1011.5
20260505192610 76 193 4.0 7.0 0.00 0.00 0.00 33 1011.7
20260505191518 76 181 3.0 5.0 0.00 0.00 0.00 33 1011.8
20260505190522 74 205 4.0 6.0 0.00 0.00 0.00 35 1011.9
20260505185521 73 222 3.0 4.0 0.00 0.00 0.00 36 1012.1
20260505184521 74 171 3.0 5.0 0.00 0.00 0.00 35 1012.2
20260505183518 73 161 3.0 5.0 0.00 0.00 0.00 37 1012.2
20260505182521 71 172 4.0 5.0 0.00 0.00 0.00 38 1012.4
20260505181542 71 232 3.0 4.0 0.00 0.00 0.00 38 1012.6
20260505180535 72 155 3.0 5.0 0.00 0.00 0.00 38 1012.7
20260505175525 70 180 3.0 4.0 0.00 0.00 0.00 39 1012.7
20260505174525 68 164 2.0 4.0 0.00 0.00 0.00 41 1012.8
20260505173535 67 161 1.0 2.0 0.00 0.00 0.00 40 1013.0
20260505172530 67 120 3.0 4.0 0.00 0.00 0.00 42 1013.2
20260505171636 66 142 3.0 5.0 0.00 0.00 0.00 42 1013.2
20260505170554 64 140 2.0 4.0 0.00 0.00 0.00 45 1013.2
20260505165531 70 170 3.0 4.0 0.00 0.00 0.00 39 1013.2
20260505164532 69 168 2.0 4.0 0.00 0.00 0.00 41 1013.3
20260505163526 67 106 1.0 2.0 0.00 0.00 0.00 44 1013.4
20260505162521 67 214 2.0 2.0 0.00 0.00 0.00 44 1013.4
20260505161516 67 34 1.0 2.0 0.00 0.00 0.00 44 1013.7
20260505160541 62 125 2.0 3.0 0.00 0.00 0.00 50 1013.7
20260505152516 48 140 3.0 4.0 0.00 0.00 0.00 73 1013.9
20260505151529 47 127 3.0 4.0 0.00 0.00 0.00 74 1013.8
20260505150553 46 120 2.0 4.0 0.00 0.00 0.00 76 1013.7
20260505140518 41 121 1.0 2.0 0.00 0.00 0.00 94 1013.5